Location: Rockford
(42.2710°N, 89.0940°W)
Time: 14:25:20
(UTC-06:00)

Daily predictions for brighter satellites

Satellite Brightness Start Highest point End
(mag) Time Altitude Azimuth Time Altitude Azimuth Time Altitude Azimuth
Cosmos 44 Rocket 3.7 17:19:16 10° SW 17:24:24 73° NW 17:29:27 10° NNE
Aureole 2 Rocket 3.3 17:23:31 10° S 17:26:59 37° ESE 17:30:44 10° NE
MSX 3.8 17:24:47 10° SSE 17:30:29 74° ENE 17:36:13 10° N
BREEZE-M DEB (TANK) 3.3 17:28:26 10° SSW 17:30:44 26° SE 17:32:50 10° E
Cosmos 372 Rocket 4.0 17:26:24 10° NNW 17:31:27 59° ENE 17:36:29 10° SSE
AQUARIUS 4.3 17:27:56 10° S 17:32:25 81° WSW 17:36:57 10° NNW
USA 116 3.3 17:30:39 10° N 17:33:48 78° WNW 17:36:53 10° SSW
SJ-7 4.5 17:30:13 10° S 17:34:15 83° WSW 17:38:16 10° NNW
OTV 4 3.4 17:32:39 10° WSW 17:34:22 14° SSW 17:36:04 10° SSE
Cosmos 1626 3.7 17:32:02 10° SE 17:34:26 16° E 17:36:50 10° NE
Cosmos 2219 Rocket 2.6 17:29:16 10° SSW 17:34:52 68° WNW 17:40:30 10° NNE
MOS 1 4.4 17:30:03 10° SSE 17:35:42 84° WSW 17:41:25 10° NNW
Cosmos 540 Rocket 3.5 17:31:45 10° SSW 17:36:54 75° ESE 17:42:04 10° NNE
Cosmos 1328 3.7 17:33:19 10° S 17:37:15 82° E 17:41:13 10° N
YAOGAN 1 2.7 17:33:00 10° SSE 17:37:19 83° WSW 17:41:41 10° NNW
Cosmos 2333 Rocket 2.3 17:31:59 10° SSW 17:37:38 82° WNW 17:43:20 10° NNE
COSMO-SKYMED 1 3.1 17:33:46 10° NNE 17:37:51 39° E 17:41:54 10° SSE
Cosmos 304 Rocket 4.4 17:34:28 10° SSE 17:38:52 37° ESE 17:43:16 10° NE
BREEZE M DEB (TANK) 1.8 17:35:48 10° NW 17:38:54 43° NNE 17:40:57 10° E
USA 215 3.7 17:39:11 10° E 17:45:19 44° NNE 17:51:26 10° NW
Cosmos 2151 2.9 17:41:19 10° S 17:45:29 76° E 17:49:41 10° NNE
CZ-4 R/B 2.9 17:43:30 10° S 17:47:10 40° W 17:50:52 10° NNW
Cosmos 2278 Rocket 2.4 17:41:31 10° NNW 17:47:13 81° WSW 17:52:54 10° SSE
Cosmos 1726 2.3 17:44:53 10° N 17:48:40 80° W 17:52:26 10° S
Cosmos 1455 3.4 17:47:32 10° NNE 17:50:32 21° ENE 17:53:31 10° SE
Resurs 01 Rocket 3.2 17:49:26 10° E 17:51:55 15° ENE 17:54:24 10° NNE
Cosmos 1703 3.8 17:50:16 10° SSE 17:53:52 37° E 17:57:29 10° NNE
SJ-6B 3.9 17:51:12 10° SE 17:54:36 26° ENE 17:58:02 10° NNE
Lacrosse 5 3.9 17:52:35 10° NW 17:55:33 15° N 17:58:32 10° NNE
Cosmos 1900 4.4 17:56:25 10° NNW 18:01:20 59° NE 18:06:16 10° SE
Cosmos 2279 Rocket 3.9 17:57:52 10° N 18:04:08 81° E 18:10:22 10° S
CZ-2C R/B 4.4 18:04:28 10° SSW 18:08:52 31° W 18:13:10 10° NNW
Cosmos 1300 4.0 18:06:42 10° NNW 18:10:21 43° W 18:13:59 10° SSW
Cosmos 1151 Rocket 4.2 18:06:36 10° NNW 18:10:41 45° W 18:14:47 10° SSW
Meteor 1-27 4.4 18:05:28 10° NNW 18:11:19 81° W 18:17:09 10° S
Cosmos 2237 Rocket 2.8 18:06:07 10° SW 18:11:38 57° WNW 18:17:13 10° NNE
Cosmos 2369 Rocket 3.7 18:11:40 10° N 18:15:06 16° NE 18:15:08 16° NE
Lacrosse 4 Rocket 2.2 18:14:06 10° N 18:17:39 29° NE 18:18:28 26° ENE
SL-16 R/B 2.1 18:13:38 10° SSW 18:19:16 74° ESE 18:24:55 10° NNE
CENTAUR R/B 4.2 18:14:23 10° W 18:19:41 27° NNW 18:25:34 10° NNE
Cosmos 1340 Rocket 3.1 18:17:17 10° SSW 18:21:12 68° W 18:25:08 10° N
Cosmos 1484 Rocket 4.0 18:18:03 10° S 18:21:50 45° W 18:25:42 10° NNW
Cosmos 2242 Rocket 4.1 18:18:26 10° N 18:22:32 36° ENE 18:26:39 10° SE
Nadezhda 4 Rocket 4.0 18:18:09 10° S 18:24:16 60° E 18:30:29 10° NNE
ALOS 2.8 18:20:48 10° SE 18:24:59 34° ENE 18:29:11 10° N
USA 229 DEB 4.0 18:19:09 10° S 18:25:35 45° ESE 18:29:44 22° NE
Cosmos 1805 Rocket 3.6 18:21:13 10° S 18:25:41 88° W 18:30:10 10° N
USA 229 4.0 18:19:16 10° S 18:25:41 44° ESE 18:29:47 22° ENE
SKYMED 2 4.1 18:21:41 10° N 18:25:59 61° WNW 18:30:15 10° SSW
DMSP B5D1-3 4.5 18:21:26 10° NNE 18:26:33 89° E 18:31:39 10° SSW
Cosmos 1184 Rocket 3.0 18:23:41 10° S 18:26:55 49° E 18:27:44 38° NE
Spot 2 Rocket 4.0 18:22:35 10° SE 18:27:06 34° ENE 18:31:38 10° N
Cosmos 2297 3.9 18:25:24 10° NNW 18:31:06 76° WSW 18:36:49 10° SSE
Meteor 1-28 Rocket 3.6 18:31:01 10° N 18:34:42 63° WNW 18:38:22 10° SSW
Cosmos 2058 4.4 18:31:01 10° SSW 18:34:51 38° WNW 18:38:42 10° N
Cosmos 292 Rocket 4.5 18:31:12 10° SSE 18:35:12 31° ESE 18:35:12 31° ESE
Cosmos 1869 3.5 18:32:08 10° N 18:36:03 46° ENE 18:39:57 10° SSE
Iridium 4 Rocket 3.3 18:32:16 10° SSE 18:36:32 44° E 18:38:16 29° NE
Cosmos 1461 3.3 18:34:42 10° SW 18:38:50 60° NW 18:41:08 24° NNE
Sich 1 3.0 18:36:22 10° S 18:40:49 87° E 18:45:16 10° N
SOZ 4.5 18:39:32 10° SW 18:41:27 71° SW 18:41:27 71° SW
Cosmos 1538 Rocket 4.0 18:36:42 10° SSW 18:42:00 85° WNW 18:46:59 12° NNE
Cosmos 1092 Rocket 4.0 18:39:25 10° S 18:45:39 63° E 18:51:56 10° NNE
Cosmos 1633 Rocket 3.0 18:45:22 10° S 18:49:47 85° W 18:53:52 12° N
Cosmos 923 Rocket 4.1 18:44:48 10° S 18:49:49 51° ESE 18:50:56 43° ENE
FENGYUN 3A 3.6 18:44:55 10° SSE 18:50:10 60° ENE 18:55:29 10° N
Abrixas 4.0 18:48:40 10° W 18:50:53 29° NW 18:50:53 29° NW
METEOR-M 4.4 18:47:34 10° S 18:52:53 70° WSW 18:58:15 10° NNW
BREEZE-M DEB (TANK) 3.4 18:52:56 10° W 18:54:14 22° NW 18:54:14 22° NW
Cosmos 1356 Rocket 4.1 18:51:47 10° SSW 18:55:39 51° WNW 18:59:17 12° N
Cosmos 1680 Rocket 3.8 18:51:45 10° S 18:56:19 44° ESE 18:56:19 44° ESE
SL-19 R/B 4.2 18:52:16 10° SSE 18:58:08 83° ENE 19:03:46 10° NNW
FREGAT/IRIS 3.7 18:56:40 10° S 18:59:36 46° W 19:02:35 10° NNW
Aureole 1 Rocket 3.8 18:55:04 10° SSW 19:00:29 87° ESE 19:07:42 10° NNE
Lacrosse 5 rocket 4.2 18:59:54 10° W 19:02:18 16° WSW 19:04:47 10° SSW
ATLAS 5 CENTAUR R/B 3.9 19:02:17 10° NNW 19:05:20 20° NNE 19:05:20 20° NNE
Cosmos 1626 4.0 19:06:13 10° SW 19:09:33 30° WNW 19:12:54 10° NNW
Cosmos 2195 Rocket 4.3 19:03:50 10° S 19:09:50 63° E 19:13:16 27° NNE
BREEZE-M DEB (TANK) 4.5 18:58:01 10° W 19:14:49 51° N 19:16:13 42° NE
NOSS 3-1 (C) 4.4 19:12:35 10° S 19:15:41 28° SSE 19:15:41 28° SSE
Cosmos 773 Rocket 4.5 19:14:48 10° SSW 19:19:53 58° WNW 19:22:21 30° N
FengYun 1-2 T 4.4 19:14:31 10° S 19:20:04 72° WSW 19:25:36 10° NNW
Cosmos 1603 3.5 19:18:20 10° SSW 19:23:56 89° WNW 19:24:34 72° NNE
Cosmos 1943 Rocket 4.2 19:20:00 10° N 19:21:01 14° N 19:21:01 14° N
Resurs 01 Rocket 2.1 19:26:51 45° SSW 19:27:54 58° W 19:32:19 10° NNW
USA 215 3.4 19:24:58 33° SSE 19:28:06 68° SW 19:34:39 10° NW
ATLAS 3B R/B 4.4 19:28:03 10° NNW 19:31:30 17° NNE 19:31:30 17° NNE
CZ-4C R/B 4.1 19:31:57 10° NNW 19:35:48 24° NNE 19:35:48 24° NNE
Cosmos 1655 Rocket 4.2 19:32:22 10° S 19:37:30 60° SSE 19:37:30 60° SSE
Lacrosse 5 4.0 19:36:35 10° NNW 19:38:19 16° N 19:38:19 16° N
Lacrosse 4 Rocket 3.8 19:52:54 10° NW 19:54:54 21° WNW 19:54:54 21° WNW
Cosmos 2369 Rocket 3.6 19:54:16 10° NNW 19:56:59 29° NNW 19:56:59 29° NNW
ALOS 4.3 19:58:37 10° SSW 20:02:27 25° W 20:06:19 10° NW
SL-16 R/B 4.5 20:00:02 10° W 20:04:00 19° NW 20:06:55 14° NNW
